This is the latest recevied weather packets stored in our database for station/object F4AMY-13. If no packets are shown the sender has not sent any weather packets the latest 10 day(s).
| Time | Temp. | Humidity | Pressure | Rain* | Wind** | Luminosity | Snow |
|---|---|---|---|---|---|---|---|
| 1777537621 | 20.56° C | 44% | 1015.6 hPa | 0 mm | 15.65 m/s, ° | 35 W/m² | - |
| 1777537321 | 20.56° C | 50% | 1015.8 hPa | 0 mm | 15.2 m/s, ° | 34 W/m² | - |
| 1777537021 | 20° C | 47% | 1015.6 hPa | 0 mm | 14.75 m/s, ° | 33 W/m² | - |
| 1777536721 | 20° C | 46% | 1015.5 hPa | 0 mm | 14.31 m/s, ° | 32 W/m² | - |
| 1777536421 | 20° C | 46% | 1015.3 hPa | 0 mm | 13.86 m/s, ° | 31 W/m² | - |
| 1777536121 | 19.44° C | 45% | 1015.3 hPa | 0 mm | 13.41 m/s, ° | 30 W/m² | - |
| 1777535819 | 19.44° C | 48% | 1015.7 hPa | 0 mm | 12.96 m/s, ° | 29 W/m² | - |
| 1777535519 | 18.89° C | 46% | 1015.4 hPa | 0 mm | 12.96 m/s, ° | 29 W/m² | - |
| 1777535219 | 18.89° C | 50% | 1015.3 hPa | 0 mm | 12.52 m/s, ° | 28 W/m² | - |
| 1777534919 | 18.89° C | 50% | 1015.3 hPa | 0 mm | 12.52 m/s, ° | 28 W/m² | - |
| 1777534619 | 18.89° C | 50% | 1015.5 hPa | 0 mm | 12.07 m/s, ° | 27 W/m² | - |
| 1777534318 | 18.33° C | 49% | 1015.2 hPa | 0 mm | 12.07 m/s, ° | 27 W/m² | - |
| 1777534018 | 17.78° C | 48% | 1015.3 hPa | 0 mm | 11.62 m/s, ° | 26 W/m² | - |
| 1777533718 | 17.78° C | 48% | 1015.3 hPa | 0 mm | 11.18 m/s, ° | 25 W/m² | - |
| 1777533418 | 17.22° C | 51% | 1015.4 hPa | 0 mm | 10.73 m/s, ° | 24 W/m² | - |
| 1777533118 | 16.67° C | 50% | 1015.5 hPa | 0 mm | 10.73 m/s, ° | 24 W/m² | - |
| 1777532818 | 16.11° C | 53% | 1015.3 hPa | 0 mm | 10.28 m/s, ° | 23 W/m² | - |
| 1777532518 | 16.11° C | 50% | 1015 hPa | 0 mm | 10.28 m/s, ° | 23 W/m² | - |
| 1777532218 | 15.56° C | 56% | 1014.9 hPa | 0 mm | 9.83 m/s, ° | 22 W/m² | - |
| 1777531917 | 15° C | 55% | 1015.1 hPa | 0 mm | 9.39 m/s, ° | 21 W/m² | - |
| 1777531617 | 14.44° C | 56% | 1015.2 hPa | 0 mm | 9.39 m/s, ° | 21 W/m² | - |
| 1777531317 | 13.89° C | 57% | 1015 hPa | 0 mm | 8.94 m/s, ° | 20 W/m² | - |
| 1777531017 | 13.33° C | 60% | 1014.9 hPa | 0 mm | 8.49 m/s, ° | 19 W/m² | - |
| 1777530717 | 12.78° C | 61% | 1015 hPa | 0 mm | 8.49 m/s, ° | 19 W/m² | - |
| 1777530417 | 12.22° C | 63% | 1014.9 hPa | 0 mm | 8.05 m/s, ° | 18 W/m² | - |
* Rain latest hour (hover to see other rain measurements)
** Current wind speed in m/s (hover to see current wind gust speed)